YRSRB LRBS-LRBS

Flight info

Callsign YRSRB
Flight time 0h 12m
Altitude 1500
Route VFR
Aircraft C82R/L-VGD/C

Departure

Time 2026-05-05 19:26
Airport Bucharest Băneasa Aurel Vlaicu International Airport (LRBS)

Arrival

Time 2026-05-05 19:39
Airport Bucharest Băneasa Aurel Vlaicu International Airport (LRBS)
Time Latitude Longitude Altitude Speed Heading
2026-05-05 19:18 44.49730 26.08212 303 ft 0 kts 100°
2026-05-05 19:23 44.49726 26.08220 304 ft 5 kts 154°
2026-05-05 19:23 44.49689 26.08293 303 ft 15 kts 99°
2026-05-05 19:23 44.49684 26.08432 303 ft 13 kts 39°
2026-05-05 19:23 44.49762 26.08445 303 ft 10 kts 313°
2026-05-05 19:24 44.49778 26.08348 303 ft 11 kts 281°
2026-05-05 19:24 44.49792 26.08230 303 ft 12 kts 281°
2026-05-05 19:24 44.49841 26.08161 303 ft 11 kts 359°
2026-05-05 19:24 44.49903 26.08214 303 ft 12 kts 68°
2026-05-05 19:25 44.49909 26.08240 303 ft 0 kts 73°
2026-05-05 19:25 44.49948 26.08430 303 ft 46 kts 72°
2026-05-05 19:26 44.50086 26.09047 364 ft 83 kts 74°
2026-05-05 19:26 44.50264 26.09948 539 ft 105 kts 76°
2026-05-05 19:26 44.50474 26.11010 746 ft 121 kts 75°
2026-05-05 19:26 44.50703 26.12162 944 ft 124 kts 76°
2026-05-05 19:27 44.50960 26.13349 1112 ft 130 kts 74°
2026-05-05 19:27 44.51260 26.14576 1146 ft 134 kts 71°
2026-05-05 19:27 44.51607 26.15799 1112 ft 132 kts 67°
2026-05-05 19:27 44.52289 26.16510 1246 ft 123 kts 11°
2026-05-05 19:28 44.53005 26.16150 1363 ft 113 kts 295°
2026-05-05 19:28 44.52852 26.15163 1361 ft 112 kts 236°
2026-05-05 19:28 44.52410 26.14135 1168 ft 130 kts 237°
2026-05-05 19:28 44.51980 26.13102 1132 ft 117 kts 242°
2026-05-05 19:29 44.51675 26.12061 1105 ft 113 kts 246°
2026-05-05 19:29 44.51385 26.11066 1112 ft 113 kts 245°
2026-05-05 19:29 44.51069 26.10004 1114 ft 118 kts 246°
2026-05-05 19:29 44.50768 26.08934 1126 ft 120 kts 245°
2026-05-05 19:30 44.50440 26.07856 1143 ft 121 kts 244°
2026-05-05 19:30 44.50092 26.06749 1073 ft 126 kts 243°
2026-05-05 19:30 44.49715 26.05631 1052 ft 126 kts 243°
2026-05-05 19:30 44.49334 26.04517 1031 ft 129 kts 241°
2026-05-05 19:31 44.48741 26.03801 1030 ft 107 kts 187°
2026-05-05 19:31 44.48337 26.04375 1040 ft 91 kts 86°
2026-05-05 19:31 44.48776 26.05030 933 ft 102 kts 37°
2026-05-05 19:31 44.49311 26.05700 797 ft 100 kts 56°
2026-05-05 19:32 44.49561 26.06554 632 ft 91 kts 76°
2026-05-05 19:32 44.49730 26.07400 521 ft 89 kts 76°
2026-05-05 19:32 44.49892 26.08166 405 ft 77 kts 75°
2026-05-05 19:32 44.50038 26.08860 308 ft 70 kts 76°
2026-05-05 19:33 44.50161 26.09463 315 ft 70 kts 73°
2026-05-05 19:33 44.50315 26.10229 441 ft 95 kts 75°
2026-05-05 19:33 44.50517 26.11224 635 ft 114 kts 76°
2026-05-05 19:33 44.50755 26.12354 817 ft 127 kts 75°
2026-05-05 19:34 44.50972 26.13545 1014 ft 127 kts 83°
2026-05-05 19:34 44.51101 26.14718 1153 ft 121 kts 62°
2026-05-05 19:34 44.51842 26.15095 1308 ft 126 kts 340°
2026-05-05 19:35 44.51936 26.13222 1401 ft 130 kts 233°
2026-05-05 19:35 44.51535 26.12132 1258 ft 122 kts 246°
2026-05-05 19:35 44.51248 26.11057 1197 ft 115 kts 247°
2026-05-05 19:35 44.50976 26.10021 1146 ft 113 kts 248°
2026-05-05 19:36 44.50691 26.08957 1126 ft 120 kts 247°
2026-05-05 19:36 44.50408 26.07868 1105 ft 116 kts 248°
2026-05-05 19:36 44.50390 26.06766 1125 ft 111 kts 279°
2026-05-05 19:36 44.50602 26.05735 1117 ft 107 kts 277°
2026-05-05 19:37 44.50297 26.04892 1124 ft 101 kts 210°
2026-05-05 19:37 44.49637 26.04689 1030 ft 93 kts 174°
2026-05-05 19:37 44.49333 26.05283 875 ft 89 kts 80°
2026-05-05 19:37 44.49476 26.06153 707 ft 88 kts 76°
2026-05-05 19:38 44.49631 26.06953 570 ft 83 kts 76°
2026-05-05 19:38 44.49797 26.07712 462 ft 76 kts 76°
2026-05-05 19:38 44.49941 26.08420 366 ft 75 kts 74°
2026-05-05 19:38 44.50081 26.09067 301 ft 62 kts 74°
2026-05-05 19:39 44.50179 26.09555 303 ft 42 kts 74°
2026-05-05 19:39 44.50247 26.09896 304 ft 33 kts 75°
2026-05-05 19:39 44.50302 26.10180 305 ft 28 kts 75°
2026-05-05 19:39 44.50338 26.10392 303 ft 13 kts 118°
2026-05-05 19:40 44.50251 26.10448 303 ft 14 kts 166°
2026-05-05 19:40 44.50242 26.10451 303 ft 0 kts 163°
2026-05-05 19:40 44.50242 26.10452 303 ft 1 kts 163°
2026-05-05 19:41 44.50179 26.10430 305 ft 16 kts 231°
2026-05-05 19:41 44.50132 26.10236 304 ft 23 kts 255°
2026-05-05 19:41 44.50085 26.10002 303 ft 26 kts 253°
2026-05-05 19:41 44.50034 26.09756 305 ft 26 kts 253°
2026-05-05 19:42 44.49980 26.09499 304 ft 27 kts 253°
2026-05-05 19:42 44.49926 26.09246 303 ft 27 kts 253°
2026-05-05 19:42 44.49870 26.08989 303 ft 28 kts 253°
2026-05-05 19:42 44.49821 26.08729 304 ft 27 kts 254°
2026-05-05 19:43 44.49783 26.08550 303 ft 15 kts 252°
2026-05-05 19:43 44.49735 26.08447 303 ft 12 kts 188°
2026-05-05 19:43 44.49679 26.08378 303 ft 13 kts 282°
2026-05-05 19:43 44.49698 26.08240 303 ft 15 kts 279°
2026-05-05 19:44 44.49677 26.08161 303 ft 2 kts 192°
2026-05-05 19:44 44.49674 26.08162 303 ft 0 kts 138°